Погода в Алдане

Погода в Алдане : погода сейчас, прогноз погоды и архив. Всё, что Вы хотите узнать о погоде в Алдане!

Хотите узнать прогноз погоды в Алдане? Тогда Вам сюда: Погода в Алдане

Поиск расширенной информации на нашем сайте:

Другие новости

Новости СМИ2

Главная страница сайта

Новости сайта

03.07.2017

Напоминаем, что на нашем специализированном сайте Метеоцентр.Азия вы можете получить высокодетализированные автоматические прогнозы погоды по пунктам России, СНГ и мира в авиационном формате (включающие направление и скорость ветра, видимость, явления погоды, количество и форму облачности, нижнюю и верхнюю границу облачности).


Погода в Алдане - сегодня

Время (UTC), дата Ветер
(°,м/с) 
Видим.   Явления Облачность Т
(°С)
Тd
(°С)
f(%) Тe
(°С)
Pmin
(гПа)
dP
(гПа)
Po
(мм)
O2
(г/м3)
Тmin Tmax R s Состояние
почвы
06 15.02.18 280 (З) 10 км  слаб. снег  10/0 верхняя 
[Cs]
-22 -24.6 79 -22  1020.2  0.2  698  308           
09 15.02.18 тихо ()   10 км  слаб. снег  10/0 средняя, верхняя 
[Ac trans|Cs]
-23.6 -25.5 84 -24  1022.4  1.6  699  310           
15 15.02.18 тихо ()   10 км  слаб. снег  10/0 средняя, верхняя 
[Ac trans|Cs]
-28 -29.8 85 -28  1026.5  0.6  701  316           
18 15.02.18 тихо ()   10 км  слаб. снег  10/0 средняя 
[As op]
-27.3 -29.2 84 -27  1026.8  0.6  701  316           
21 15.02.18 210 (ЮЗ) 10 км  слаб. снег  10/0 средняя 
[As op]
-27.6 -29.3 85 -28  1026.9  701  316           
03 16.02.18 230 (ЮЗ) 10 км  слаб. снег  10/0 средняя, верхняя 
[Ac trans|Cs]
-23.3 -25.1 85 -24  1025.8  0.1  702  311           
06 16.02.18 240 (ЮЗ) 10 км  слаб. снег  10/0 средняя, верхняя 
[Ac trans|Cs]
-21.1 -23.6 80 -21  1024.5  -0.4  701  308           
09 16.02.18 260 (З) 4000 м  слаб. снег  10/0 средняя, верхняя 
[Ac trans|Cs]
-21.3 -23.2 85 -22  1025.3  -0.7  702  308           
15 16.02.18 220 (ЮЗ) 10 км  слаб. снег  10/0 средняя, верхняя 
[Ac trans|Cs]
-24.4 -26.2 85 -25  1026.9  702  312           
18 16.02.18 тихо ()   10 км  слаб. снег  10/0 средняя, верхняя 
[Ac trans|Cs]
-24.3 -26.1 85 -24  1027.1  0.2  702  312           
21 16.02.18 210 (ЮЗ) 10 км  слаб. снег  10/0 средняя, верхняя 
[Ac trans|Cs]
-24 -25.9 84 -24  1026.8  -0.2  702  312           
03 17.02.18 190 (Ю) 20000 м  {снег}  10/0 средняя, верхняя 
[Ac trans|Ci fib]
-18.9 -21.5 80 -19  1024.9  -0.5  702  305           
06 17.02.18 240 (ЮЗ) 20000 м  {снег}  8/3 1000 м верхняя 
[Cu hum|Ci fib]
-17.3 -21.5 70 -17  1023.2  -1  701  303           
09 17.02.18 220 (ЮЗ) 20000 м    4/0 верхняя 
[Ci fib]
-20.4 -23.7 75 -21  1024.2  -0.1  701  307           
12 17.02.18 180 (Ю) 20000 м    ясно 
-24.4 -26.9 80 -25  1025.8  0.1  701  312    -16.5  0.0     
15 17.02.18 170 (Ю) 20000 м  слаб. снег  10/0 верхняя 
[Cs]
-24.5 -26.4 84 -25  1025.5  -0.3  701  312           
18 17.02.18 тихо ()   20000 м  слаб. снег  10/0 верхняя 
[Cs]
-24.2 -25.4 90 -24  1025.3  -0.2  701  312           
21 17.02.18 190 (Ю) 10 км  слаб. снег  10/0 верхняя 
[Cs]
-23.6 -25.5 84 -27  1025  701  311           
03 18.02.18 310 (СЗ) 20000 м  {снег}  8/0 верхняя 
[Cu hum|Ci fib]
-20.6 -23.1 80 -23  1024.2  701  307           
06 18.02.18 280 (З) 20000 м  {снег}  9/3 600 м верхняя 
[Cu hum|Ci fib]
-19.3 -23.4 70 -22  1022.8  -0.8  701  305           
09 18.02.18 270 (З) 20000 м    8/0 верхняя 
[Ci fib]
-21.4 -23.9 80 -22  1023.6  701  308           
12 18.02.18 тихо ()   20000 м    9/0 верхняя 
[Ci fib]
-27.3 -29.2 84 -27  1026  0.2  701  315    -19  0.2     
15 18.02.18 тихо ()   20000 м    3/0 верхняя 
[Ci fib]
-28.9 -30.7 84 -29  1026.6  701  318           
18 18.02.18 тихо ()   20000 м    4/0 верхняя 
[Ci fib]
-29.9 -31.7 84 -30  1026.8  -0.2  701  319           
21 18.02.18 200 (Ю) 20000 м  слаб. снег  10/0 верхняя 
[Cs]
-30.8 -32.6 84 -32  1027.1  -0.1  701  320           
Время (UTC), дата Ветер
(°,м/с) 
Видим.   Явления Облачность Т
(°С)
Тd
(°С)
f(%) Тe
(°С)
Pmin
(гПа)
dP
(гПа)
Po
(мм)
O2
(г/м3)
Тmin Tmax R s Состояние
почвы

Для получения пояснительной информации подведите курсор к названию столбца.

ПОГОДА в Алдане - архив

Всё, что Вы хотите узнать о погоде в Алдане - удобно и подробно!

Выберите нужную дату (начиная с 1 января 2015* года) и нажмите кнопку "Найти".
Будут отображены архивные сводки погоды по пункту Алдан, начиная с указанной даты.


Отображать данные в формате CSV (для использования в таблицах Excel)


Внимание! Наш архив погоды предназначен исключительно для личного некоммерческого использования в познавательных целях. Если Вам необходимы официальные справки о состоянии погоды (для производственных, юридических, коммерческих и т.п. целей), обращайтесь в органы Росгидромета.

*Примечание: данная дата относится к архиву по метеостанциям СССР (Россия, СНГ, Балтия).
Архив по метеостанциям Зарубежной Европы и Азии (кроме Китая) хранится 10 дней, по другим регионам земного шара (Китай, Африка, Америка, Австралия, Океания) - 1 день.

Алдан - район местоположения метеостанции


Название, широта, долгота, высота метеостанции:
Алдан 58.6°ш. 125.4°д. 79 м над ур. моря [Российская Федерация]

Дополнительная информация

В oтличие oт бoльшинства пoгoдных сайтoв мы публикуем пoдрoбную метеoинфoрмацию в детальнoм прoфессиoнальнoм фoрмате.

Характеристики температуры и влажнoсти вoздуха измеряются на высoте 2 м в тени вдали oт зданий и деревьев.
Скoрoсть ветра измеряется на высoте 10 м (на урoвне рoста челoвека скoрoсть ветра ниже в 1.5-2 раза). Если метеoстанция нахoдится в гoрoде или в лесу, тo скoрoсть ветра занижена на 2-4 м/с пo сравнению с oткрытым местoм. Скoрoсть ветра над акватoриями крупных рек и oзёр, а также на вершинах хoлмoв на 2-5 м/с выше, чем в oбычных услoвиях.
Атмoсфернoе давление в разных тoчках местнoсти мoжет значительнo oтличаться oт давления на метеoстанции, в зависимoсти oт услoвий рельефа (при пoдъёме на 10 м давление пoнижается примернo на 1 мм рт.ст.).